111  
ASUS46 KPDT 070125  
RWRPDT  
PENDLETON REGIONAL WEATHER ROUNDUP  
NATIONAL WEATHER SERVICE PENDLETON OREGON  
600 PM PDT WED MAY 6 2015  
 
NOTE: FAIR INDICATES FEW OR NO CLOUDS BELOW 12,000 FEET WITH NO  
SIGNIFICANT WEATHER AND/OR S TO VISIBILITY
.  
 
# INDICATES UNOFFICIAL STATION AND DATA  
 
WAZ520-070210-  
EAST SLOPES OF WASHINGTON CASCADES  
 
CITY SKY/WX TMP DP RH WIND PRES REMARKS
 
#BUMPING DAM N/A 46 N/A N/A CALM N/A  
#CLE ELUM HS N/A 51 35 54 SW7 29.94F  
#CLIFFDEL 2NW N/A 51 32 48 W6 N/A  
#GLENWOOD N/A 44 38 79 N5 30.03S  
#MANASTASH CYN N/A 48 33 56 CALM 29.96R  
#NELSON N/A 51 37 59 SW1 30.03R  
#NELSON 3SW N/A 47 35 63 CALM 30.24R  
#NILE N/A 54 34 47 SW7 29.26R  
#RONALD 2NW N/A 54 39 57 W2 29.86S  
#SNOWDEN N/A 43 35 73 W3 N/A  
#TEANAWAY 4NE N/A 53 39 59 SW7 N/A  
#TROUT LAKE 1NE N/A 42 38 86 SE1 30.07R  

 
 
WAZ521-070210-  
SIMCOE HIGHLANDS  
 
CITY SKY/WX TMP DP RH WIND PRES REMARKS
 
#BICKLETON HS N/A 46 22 38 NE15G26 N/A WCI 40  
#CENTERVILLE 4W N/A 51 39 63 N3 29.75R  
#CENTERVILLE 1SWN/A 50 40 68 NW13 29.99R  
#GOLDENDALE N/A 51 36 56 NW14 N/A  
#GOLDENDALE 1NE N/A 52 27 38 SW2 N/A  
#GOLDENDALE 5WNWN/A 49 36 61 W10 30.00R  
#GOODNOE HILLS N/A 54 36 50 E6 N/A  
#LYLE 6NE N/A 48 41 77 CALM 30.01R  

 
 
WAZ026-070210-  
KITTITAS VALLEY  
 
CITY SKY/WX TMP DP RH WIND PRES REMARKS
 
ELLENSBURG AP CLOUDY 54 36 50 N10 30.00R  
YTC-OPS AREA MOCLDY 46 32 58 W21G26 29.94S WCI 38  
#ELLENSBURG CWU N/A 52 35 52 N12 29.94R  
#ELLENSBURG 3NE N/A 50 37 61 N5 29.99R  
#ELLENSBURG 1E N/A 52 31 44 N1 N/A  
#KITTITAS 4N N/A 49 35 58 N1 28.31R  
#KITTITAS 3S N/A 52 39 61 N7 29.99R  
#THORP 6N N/A 49 37 63 W15G25 30.01R WCI 43  

 
 
WAZ027-070210-  
YAKIMA VALLEY  
 
CITY SKY/WX TMP DP RH WIND PRES REMARKS
 
SUNNYSIDE AP PTCLDY 56 36 47 W18G26 29.96R  
YAKIMA AIRPORT MOCLDY 61 30 31 N13 29.99R  
#DONALD 2NE N/A 54 31 41 CALM 28.83S  
#MABTON N/A 57 37 47 W15G26 29.96R  
#MOXEE 2E N/A 44 24 45 CALM 29.85S  
#NACHES 2SW N/A 56 34 43 N6 29.97R  
#OUTLOOK DOT N/A N/A N/A N/A W14 N/A  
#SELAH 8E N/A 52 29 41 W7 N/A  
#TERRACE HTS N/A 54 35 48 NW1 29.95R  
#TOPPENISH N/A 53 36 52 N7 29.91R  
#WAPATO 4NE N/A 54 31 41 CALM 28.83S  
#WEST VALLEY N/A 58 31 36 CALM 29.97R  
#W YAKIMA N/A 57 34 42 N2 29.98R  
#WHITE SWAN 5E N/A 57 36 45 NE7 30.01R  
#WILEY CITY 3W N/A 59 24 26 CALM 29.97S  

 
 
WAZ028-070210-  
LOWER COLUMBIA BASIN...WASHINGTON  
 
CITY SKY/WX TMP DP RH WIND PRES REMARKS
 
PASCO MOCLDY 65 34 31 N10 29.93S  
#BASIN CITY 5SW N/A 63 40 43 N6 29.93S  
#BENTON CITY N/A 61 33 35 CALM 29.85S  
#CONNELL 5N N/A 63 30 29 NW7 29.91R  
#CONNELL 5NW N/A 62 34 35 N5 29.88S  
#ELTOPIA 6NW N/A 59 36 42 SW7 28.90S  
#KAHLOTUS N/A 63 28 26 W7 29.90S  
#KENNEWICK 3S N/A 64 36 35 CALM 29.92F  
#PATERSON N/A 59 33 37 W1 29.92S  
#PROSSER N/A 58 30 34 W8 29.95R  
#SAGEMOOR 2W N/A 62 38 41 N9 29.79R  
#TOUCHET 2S N/A 63 40 43 NW7 29.89R  
#WEST PASCO N/A 66 35 32 N6 29.92F  

 
 
WAZ029-070210-  
FOOTHILLS OF THE BLUES...WASHINGTON  
 
CITY SKY/WX TMP DP RH WIND PRES REMARKS
 
WALLA WALLA AP PTCLDY 64 29 27 NE6 29.90F  
#DAYTON SCHOOL N/A 58 26 29 CALM 29.93S  
#LOWDEN 2SE N/A 64 34 33 NW2 29.87R  
#PLEASANT VIEW 1N/A 61 29 30 CALM 29.95R  
#PRESCOTT N/A 65 36 34 CALM 29.89S  
#SUDBURY N/A 62 N/A N/A CALM N/A  
#WHITMAN COLLEGEN/A 62 33 34 CALM 29.95R  
#WAITSBURG 5S N/A 60 38 44 CALM 30.00S  
#WAITSBURG 8N N/A 54 12 18 CALM 29.76S  
#WALLA WALLA 5E N/A 60 37 42 N2 N/A  
#WALLA WALLA U N/A 65 34 31 N2 29.89S  
#WHITMAN MISSIONN/A 65 34 31 CALM 29.91S  

 
 
WAZ030-070210-  
BLUE MOUNTAINS...WASHINGTON  
 
CITY SKY/WX TMP DP RH WIND PRES REMARKS
 
#DIXIE 5SE N/A 48 29 47 E3 29.85S  

 
 
ORZ009-041-WAZ024-070210-  
COLUMBIA RIVER GORGE  
 
CITY SKY/WX TMP DP RH WIND PRES REMARKS
 
HOOD RIVER AP LGT RAIN 46 43 89 CALM 30.06R  
THE DALLES AP CLOUDY 54 38 55 W12 30.04R  
#ARLINGTON AIRPON/A 50 37 61 N12 N/A  
#ARLINGTON HS N/A 52 42 69 NW1 29.93R  
#CELILO DOT N/A 58 39 49 SW9 N/A  
#MOSIER 1S N/A 48 40 74 NW5 30.03R  
#RUFUS DOT N/A 57 39 51 E6 N/A  
 

 
 
ORZ510-070210-  
NORTH CENTRAL OREGON  
 
CITY SKY/WX TMP DP RH WIND PRES REMARKS
 
#CHENOWITH 1W N/A 46 39 76 NW15 N/A WCI 40  
#COW CYN RST AREN/A 47 26 44 NW8 N/A  
#DUFUR 9E N/A 46 34 63 W14 30.08R WCI 40  
#GRASS VALLEY 1SN/A 49 34 56 NW14 30.06R WCI 44  
#KENT DOT N/A 47 28 47 NW10 N/A  
#MAUPIN SCHOOL N/A 53 34 48 N9G35 30.01R  
#MORO SCHOOL N/A 51 39 63 NW16G24 30.01R  
#SHANIKO 5WSW N/A 44 26 49 NW20 N/A WCI 36  
#SHANIKO 4NW N/A 42 29 60 N15 29.98R WCI 34  
#TYGH VALLEY 2NEN/A 50 36 58 NW18 29.99R  
#WAPANITIA AIRPON/A 48 33 56 N7 30.03R  
#WASCO DOT N/A 55 35 47 W12 N/A  
#WASCO AIRPORT N/A 56 35 45 W14 N/A  
#WASCO 5NE N/A 54 36 50 W8 30.00R  

 
 
ORZ511-070210-  
CENTRAL OREGON  
 
CITY SKY/WX TMP DP RH WIND PRES REMARKS
 
BEND AIRPORT THUNDER 39 36 89 E7 30.00R RAIN  
MADRAS AIRPORT LGT DRIZZLE 43 36 76 W12 30.03R WCI 37  
PRINEVILLE AP PTCLDY 43 32 65 N13 29.98R WCI 36  
REDMOND AIRPORT THUNDER 43 34 70 NE7 30.00R  
#BEND 1SW N/A 39 35 85 NW1 N/A  
#BEND-AWBREY N/A 37 34 89 CALM 30.02R  
#BEND-KIM LN N/A 40 37 89 E1 29.95R  
#CROOKED RVR RANN/A 45 33 63 E10 30.00R  
#CULVER N/A 44 34 68 N7 29.97R  
#LAKE BILLY CHINN/A 46 13 26 NE6 30.08R  
#POWELL BUTTE 3EN/A 47 24 40 NE10 N/A  
#POWELL BUTTE N/A 43 31 62 E2 29.62R  
#PRINEVILLE 3N N/A 42 36 79 N6 29.98R  
#WARM SPRINGS N/A 47 41 79 CALM 29.98R  
 

 
 
 
ORZ509-070210-  
EAST SLOPES OF OREGON CASCADES  
 
CITY SKY/WX TMP DP RH WIND PRES REMARKS
 
#CAMP SHERMAN N/A 51 27 39 N5 30.04R  
#LA PINE 4NW N/A 41 30 65 N2 30.05R  
#SISTERS AIRPOR N/A 50 34 54 N8 30.17S  
#SISTERS ODOT N/A 51 N/A N/A W7 N/A  
#SISTERS 1NW N/A 51 28 41 N13 N/A  
#SISTERS 3N N/A 50 26 39 CALM 30.01R  
#SUNRIVER N/A 40 34 79 N1 29.91R  
#TUMALO 3W N/A 42 34 73 E3 29.90R  
#WANOGA BUTTE D N/A 38 17 42 NE8 N/A  
 

 
 
ORZ044-070210-  
LOWER COLUMBIA BASIN...OREGON  
 
CITY SKY/WX TMP DP RH WIND PRES REMARKS
 
HERMISTON N/A 59 32 36 W15 29.93R  
#BOARDMAN SCHOOLN/A 59 35 40 N16G24 29.98R  
#BOARDMAN 8SW N/A 55 41 59 W13 29.97R  
#ECHO 8SW N/A 58 33 39 NW7 29.95R  
#IONE SCHOOL N/A 53 37 54 SW9 29.95R  
#IRRIGON 4NW N/A 59 35 40 W3 N/A  
#UMATILLA SCHOOLN/A 60 41 49 W7 29.98S  
#UMATILLA N/A 60 33 36 W7 29.85R  

 
 
ORZ507-070210-  
NORTHERN FOOTHILLS OF THE BLUES  
 
CITY SKY/WX TMP DP RH WIND PRES REMARKS
 
PENDLETON AIRPT PTCLDY 60 29 31 W9 29.91S  
#ADAMS 3WNW N/A 58 30 34 N5 29.90R  
#ATHENA N/A 58 29 33 VRB2 29.93S  
#CAYUSE N/A 59 31 34 CALM 29.91R  
#HELIX SCHOOL N/A 59 28 30 N2 29.91S  
#HELIX 3N N/A 57 29 34 N7 29.89R  
#HELIX 6SW N/A 60 23 24 N7 29.91R  
#HOLDMAN 6E N/A 57 33 40 SE14 29.72S  
#M-F FERNDALE N/A 70 34 26 CALM 29.89S  
#M-F GROVE ELEM N/A 62 27 26 N1 29.89S  
#M-FREEWATER 5SEN/A 60 36 41 CALM 29.91S  
#PENDLETON DNTN N/A 63 29 28 NW2 29.90S  
#PDT AQUATIC CTRN/A 65 34 31 W7 29.92S  
#PENDLETON 5NE N/A 58 34 40 NE5 29.88R  
#PDT SUNRIDGE N/A 62 29 28 W6 29.92S  
#PENDLETON 7NW N/A 58 35 42 CALM 29.89S  
#PILOT ROCK N/A 57 27 31 W2 29.94R  
#TUTUILLA N/A 61 30 31 N3 29.91R  
#UMAPINE 2E N/A 64 36 35 CALM 29.87S  
#WESTON SCHOOL N/A 57 23 27 NE5 29.88S  
 

 
 
ORZ508-070210-  
SOUTHERN FOOTHILLS OF THE BLUES  
 
CITY SKY/WX TMP DP RH WIND PRES REMARKS
 
LEXINGTON MOCLDY 48 41 77 S9 30.00R  
#AJAX N/A 51 25 36 W10 29.93R  
#CONDON SCHOOL N/A 45 35 68 CALM 29.94R  
#CONDON 5W N/A 40 32 73 CALM 29.94R  
#FOSSIL SCHOOL N/A 44 34 68 N12G25 29.98R WCI 38  
#HEPPNER EOC N/A 48 36 63 W15 29.91R WCI 42  
#HEPPNER 4NE N/A 43 36 76 NW7 29.97R  
#LEXINGTON 2SE N/A 49 39 68 SW6 29.95R  
#MIKKALO N/A 54 30 40 NW10 29.98R  
#OLEX 4N N/A 55 36 49 W2 29.97R  
#RUGGS 5NE N/A 42 35 76 W15 30.14R WCI 34  
#RUGGS 2SW N/A 45 34 65 NW12 30.01R WCI 39  
 

 
 
ORZ502-503-070210-  
BLUE MOUNTAINS  
 
CITY SKY/WX TMP DP RH WIND PRES REMARKS
 
MEACHAM CLOUDY 50 26 39 VRB5 29.92R  
#BATTLE MTN DOT N/A 40 36 85 N3 N/A  
#HEPPNER 15SE N/A 41 33 73 W1 29.84S  
#LADD CYN SMT N/A 44 31 60 NW9 N/A  
#LADD CREEK ODOTN/A 47 30 51 NE6 N/A  
#N POWDER DOT N/A 49 36 61 N18 N/A WCI 43  
#PIKES PEAK N/A 49 28 44 N6 27.99S  
#TOLLGATE N/A 38 31 76 SE1 29.87R  
#TROY SCHOOL N/A 55 37 51 W7 29.75R  
#UKIAH N/A 48 33 56 CALM 29.98R  
#WESTON 4E N/A 49 31 50 N1 29.88R  

 
 
ORZ505-070210-  
JOHN DAY BASIN  
 
CITY SKY/WX TMP DP RH WIND PRES REMARKS
 
JOHN DAY MOCLDY 48 31 51 W13 29.92S WCI 43  
#JOHN DAY KJDY N/A 53 30 41 SW2 29.91F  
#MT. VERNON 5SE N/A 44 31 60 W1 29.87F  

 
 
ORZ506-070210-  
OCHOCO AND JOHN DAY HIGHLANDS  
 
CITY SKY/WX TMP DP RH WIND PRES REMARKS
 
#BUCK CREEK DOT N/A 44 44 100 NW16 N/A WCI 37  
#HORSE RIDGE DO N/A 37 32 82 E3 N/A  
#PAULINA SCHOOL N/A 36 28 72 CALM N/A  
#PINE MTN OBS N/A 27 25 92 N9 N/A  
#PRAIRIE CITY N/A 46 34 63 SW7 29.94R  
#SENECA N/A 44 N/A N/A N5 N/A  
#SENECA 9NW N/A 44 31 60 CALM 29.91S  

 
 
ORZ049-070210-  
GRANDE RONDE VALLEY  
 
CITY SKY/WX TMP DP RH WIND PRES REMARKS
 
LA GRANDE MOCLDY 46 30 53 N20 29.92R WCI 38  
#COVE N/A 51 42 71 N6 29.91S  
#COVE SCHOOL N/A 54 39 57 E2 29.88S  
#ELGIN 3N N/A 42 36 79 CALM 29.92R  
#ELGIN 1E N/A 42 37 82 CALM N/A  
#IMBLER SCHOOL N/A 45 35 68 W3 29.90R  
#ISLAND CITY 4N N/A 59 44 57 NW1 30.05R  
#LADD CYN DOT N/A 49 36 61 NW8 N/A  
#LA GRANDE ELEM N/A 47 37 68 N2 29.96R  
#UNION 1S N/A 51 35 54 NW12 29.83R  

 
 
ORZ050-070210-  
WALLOWA COUNTY  
 
CITY SKY/WX TMP DP RH WIND PRES REMARKS
 
JOSEPH AIRPORT LGT DRIZZLE 43 36 76 CALM 29.92R  
#ENTERPRISE HS N/A 46 36 68 CALM 29.92R  
#IMNAHA SCHOOL N/A 54 41 61 N2 29.91R  
#IMNAHA 10S N/A 49 38 66 SW2 29.90R  
#JOSEPH 3N N/A 44 34 68 NW5 29.94R  
#JOSEPH 3W N/A 40 36 85 CALM 29.76R  
#LOSTINE N/A 48 35 60 CALM 29.74R  
#MT HOWARD 8000 N/A 27 25 92 NW2 29.87R  
#PROMISE 1S N/A 46 34 63 SE5 30.03R  
#SHEEP RDG 7000 N/A 28 27 96 CALM 29.98R  
#WALLOWA SCHOOL N/A 47 36 65 N1 30.86R  
 

 
 
CLICK HERE TO GO TO PREVIOUS BULLETINS.

The Nexlab OR Page
The Nexlab WA Page Main Text Page